Location: Munkebjergskolens Observatorium
(55.3864°N, 10.3987°E)
Time: 07:03:32
(UTC+01:00)

DELTA 1 DEB - Pass Details

Date: 04 December 2023
Orbit: 783 x 826 km, 98.9° (Epoch: 25 February)

Event Time Altitude Azimuth Distance (km) Brightness Sun altitude
Rises 17:26:55 0° 154° (SSE) 3,290 ? -12.5°
Reaches altitude 10° 17:29:13 10° 153° (SSE) 2,371 ? -12.8°
Maximum altitude 17:34:26 74° 70° (ENE) 845 ? -13.5°
Drops below altitude 10° 17:39:46 10° 346° (NNW) 2,417 ? -14.2°
Sets 17:42:08 0° 345° (NNW) 3,359 ? -14.6°
